GPRO Georgia

Formula 1 online manager


    Season 27, Race 16: Interlagos GP (Brazil)

    Share
    avatar
    mrfantom
    Admin

    Posts : 211
    Join date : 01.09.11
    Age : 27
    Location : Tbilisi

    Season 27, Race 16: Interlagos GP (Brazil)

    Post by mrfantom on Wed Oct 26, 2011 11:53 pm




    ადგილმდებარეობა: მექსიკა
    თარიღი: 25 ოქტომბერი, 2011

    ტრასის პარამეტრები:
    სარბოლო დისტანცია: 305.9 კმ
    წრეების რაოდენობა: 71
    წრის სიგრძე: 4.308 კმ
    საშუალო სიჩქარე: 217.49 კმ/სთ
    ჩატარებული რბოლები: 14
    მოსახვევების რაოდენობა: 14
    პიტზე შესვლა/გამოსვლის დრო: 18 წმ.

    სიმძლავრე: 12
    მართვადობა: 9
    აჩქარება: 10

    დამწოლი ძალა: საშუალო
    გასწრება: ნორმალური
    დაკიდების სიხისტე: რბილი
    საწვავის ხარჯი: საშუალო
    საბურავების ცვეთა: საშუალო

    პრაქტიკა/კვალიფიკაცია 1

    ტემპ: 29°C
    ტენიანობა: 23%
    კვალიფიკაცია 2/რბოლის სტარტი

    ტემპ: 26°C
    ტენიანობა: 23%
    სტარტი - 0ს30წთ
    ტემპ: 23°-26°
    ტენიანობა: 24%-33%
    წვიმის ალბათობა: 0%
    0ს30წთ - 1ს
    ტემპ: 25°-29°
    ტენიანობა: 24%-33%
    წვიმის ალბათობა: 0%
    1ს - 1ს30წთ
    ტემპ: 24°-27°
    ტენიანობა: 21%-31%
    წვიმის ალბათობა: 0%]
    1ს30წთ - 2ს
    ტემპ: 21°-25°
    ტენიანობა: 21%-30%
    წვიმის ალბათობა: 0%
    avatar
    mrfantom
    Admin

    Posts : 211
    Join date : 01.09.11
    Age : 27
    Location : Tbilisi

    Re: Season 27, Race 16: Interlagos GP (Brazil)

    Post by mrfantom on Wed Oct 26, 2011 11:54 pm

    Lap informationLap Lap time Pos Tyres Weather Temp Hum Events
    0 - 28 Hard Partially Cloudy 26° 23% -
    1 1:32.495 23 Hard Partially Cloudy 26° 23% -
    2 1:21.174 23 Hard Partially Cloudy 26° 23% -
    3 1:20.700 23 Hard Partially Cloudy 26° 23% -
    4 1:20.361 22 Hard Partially Cloudy 26° 24% -
    5 1:20.430 22 Hard Partially Cloudy 26° 24% -
    6 1:20.763 21 Hard Partially Cloudy 26° 24% -
    7 1:20.370 21 Hard Partially Cloudy 26° 24% -
    8 1:20.129 21 Hard Partially Cloudy 26° 24% -
    9 1:20.080 21 Hard Partially Cloudy 26° 24% -
    10 1:20.470 21 Hard Partially Cloudy 26° 24% -
    11 1:20.412 21 Hard Partially Cloudy 26° 24% -
    12 1:20.315 21 Hard Partially Cloudy 26° 24% -
    13 1:20.341 21 Hard Partially Cloudy 26° 24% -
    14 1:20.275 21 Hard Cloudy 26° 24% -
    15 1:20.198 21 Hard Cloudy 26° 24% -
    16 1:20.213 21 Hard Cloudy 26° 24% -
    17 1:20.310 20 Hard Cloudy 26° 24% -
    18 1:20.102 19 Hard Cloudy 26° 24% -
    19 1:20.000 18 Hard Cloudy 26° 24% -
    20 1:20.021 18 Hard Cloudy 26° 24% -
    21 1:19.939 18 Hard Cloudy 26° 24% -
    22 1:19.884 18 Hard Cloudy 26° 24% -
    23 1:19.828 18 Hard Cloudy 26° 24% -
    24 1:19.824 17 Hard Cloudy 26° 24% -
    25 1:19.784 9 Hard Cloudy 26° 24% -
    26 1:19.678 7 Hard Cloudy 26° 24% -
    27 1:19.645 7 Hard Cloudy 26° 24% -
    28 1:19.656 7 Hard Cloudy 26° 24% -
    29 1:19.587 7 Hard Cloudy 26° 24% -
    30 1:19.598 7 Hard Cloudy 26° 24% -
    31 1:19.477 7 Hard Cloudy 26° 24% -
    32 1:19.505 7 Hard Cloudy 26° 24% -
    33 1:19.383 7 Hard Cloudy 26° 24% -
    34 1:19.352 7 Hard Cloudy 26° 24% -
    35 1:19.374 7 Hard Cloudy 26° 24% -
    36 1:19.417 7 Hard Cloudy 26° 24% -
    37 1:19.723 7 Hard Cloudy 26° 24% -
    38 1:20.040 7 Hard Cloudy 26° 24% -
    39 1:29.503 15 Hard Cloudy 26° 24% Pit
    40 2:06.100 21 Hard Cloudy 26° 24% -
    41 1:21.368 21 Hard Cloudy 26° 24% -
    42 1:21.058 21 Hard Cloudy 26° 24% -
    43 1:20.760 21 Hard Cloudy 26° 24% -
    44 1:20.693 21 Hard Cloudy 26° 24% -
    45 1:20.581 21 Hard Cloudy 27° 24% -
    46 1:20.490 21 Hard Cloudy 28° 24% -
    47 1:20.494 21 Hard Cloudy 28° 24% -
    48 1:20.359 20 Hard Cloudy 28° 23% -
    49 1:20.427 20 Hard Very Cloudy 27° 23% -
    50 1:20.419 20 Hard Very Cloudy 26° 23% -
    51 1:20.544 19 Hard Very Cloudy 25° 22% -
    52 1:20.524 18 Hard Very Cloudy 24° 21% -
    53 1:20.530 18 Hard Very Cloudy 24° 21% -
    54 1:20.458 18 Hard Very Cloudy 24° 21% -
    55 1:20.353 17 Hard Very Cloudy 24° 21% -
    56 1:20.241 17 Hard Very Cloudy 25° 21% -
    57 1:20.209 17 Hard Very Cloudy 25° 21% -
    58 1:20.193 17 Hard Very Cloudy 25° 21% -
    59 1:20.033 17 Hard Very Cloudy 26° 21% -
    60 1:19.915 17 Hard Very Cloudy 27° 21% -
    61 1:19.834 17 Hard Very Cloudy 27° 21% -
    62 1:19.878 19 Hard Very Cloudy 27° 21% -
    63 1:19.442 19 Hard Very Cloudy 27° 21% -
    64 1:19.730 19 Hard Very Cloudy 27° 21% -
    65 1:19.738 19 Hard Very Cloudy 27° 21% -
    66 1:19.662 19 Hard Very Cloudy 27° 21% -
    67 1:19.638 19 Hard Very Cloudy 27° 21% -
    68 1:19.579 18 Hard Very Cloudy 27° 21% -
    69 1:19.480 18 Hard Very Cloudy 27° 21% -
    70 1:19.531 18 Hard Very Cloudy 26° 21% -
    71 1:19.556 18 Hard Very Cloudy 25° 21% -


    Risks used
    Overtake Defend Clear Malfunct
    20 20 25 10

    Setup used
    FWing RWing Eng Bra Gear Susp
    300 700 700 500 500 400



    Start fuel: 115 litersPit Pitstop reason Tyres condition
    Fuel left Refilled to Pit time
    Stop 1
    (Lap 39) No more fuel was left 11% 0% 115 liters 35.377s



    Tyres condition after finish: 27%

    Fuel left in the car after finish: 21 liters
    avatar
    Matador

    Posts : 216
    Join date : 02.09.11
    Age : 35

    Re: Season 27, Race 16: Interlagos GP (Brazil)

    Post by Matador on Fri Oct 28, 2011 5:04 pm

    Lap informationLap Lap time Pos Tyres Weather Temp Hum Events
    0 - 5 Hard Partially Cloudy 26° 23% -
    1 1:26.775 8 Hard Partially Cloudy 26° 23% -
    2 1:21.576 8 Hard Partially Cloudy 26° 23% -
    3 1:21.171 8 Hard Partially Cloudy 26° 23% -
    4 1:21.221 8 Hard Partially Cloudy 26° 24% -
    5 1:21.125 9 Hard Partially Cloudy 26° 24% -
    6 1:20.909 9 Hard Partially Cloudy 26° 24% -
    7 1:21.008 9 Hard Partially Cloudy 26° 24% -
    8 1:20.881 8 Hard Partially Cloudy 26° 24% -
    9 1:20.983 8 Hard Partially Cloudy 26° 24% -
    10 1:20.761 8 Hard Partially Cloudy 26° 24% -
    11 1:20.720 8 Hard Partially Cloudy 26° 24% -
    12 1:20.777 7 Hard Partially Cloudy 26° 24% -
    13 1:20.658 7 Hard Partially Cloudy 26° 24% -
    14 1:20.565 6 Hard Cloudy 26° 24% -
    15 1:20.638 6 Hard Cloudy 26° 24% -
    16 1:20.508 6 Hard Cloudy 26° 24% -
    17 1:20.486 5 Hard Cloudy 26° 24% -
    18 1:20.419 4 Hard Cloudy 26° 24% -
    19 1:20.345 3 Hard Cloudy 26° 24% -
    20 1:20.303 3 Hard Cloudy 26° 24% -
    21 1:20.289 3 Hard Cloudy 26° 24% -
    22 1:20.274 3 Hard Cloudy 26° 24% -
    23 1:20.202 3 Hard Cloudy 26° 24% -
    24 1:20.052 3 Hard Cloudy 26° 24% -
    25 1:20.027 3 Hard Cloudy 26° 24% -
    26 1:19.937 2 Hard Cloudy 26° 24% -
    27 1:19.892 2 Hard Cloudy 26° 24% -
    28 1:19.959 2 Hard Cloudy 26° 24% -
    29 1:19.811 1 Hard Cloudy 26° 24% -
    30 1:19.814 1 Hard Cloudy 26° 24% -
    31 1:19.778 1 Hard Cloudy 26° 24% -
    32 1:19.613 1 Hard Cloudy 26° 24% -
    33 1:19.651 1 Hard Cloudy 26° 24% -
    34 1:19.627 1 Hard Cloudy 26° 24% -
    35 1:19.549 1 Hard Cloudy 26° 24% -
    36 1:28.806 1 Hard Cloudy 26° 24% Pit
    37 1:56.723 4 Hard Cloudy 26° 24% -
    38 1:26.149 5 Hard Cloudy 26° 24% Driver mistake
    39 1:21.477 4 Hard Cloudy 26° 24% -
    40 1:21.170 4 Hard Cloudy 26° 24% -
    41 1:21.244 4 Hard Cloudy 26° 24% -
    42 1:24.319 4 Hard Cloudy 26° 24% Car problem
    43 1:24.236 4 Hard Cloudy 26° 24% Car problem
    44 1:24.340 5 Hard Cloudy 26° 24% Car problem
    45 1:24.218 5 Hard Cloudy 27° 24% Car problem
    46 1:24.161 5 Hard Cloudy 28° 24% Car problem
    47 1:24.155 5 Hard Cloudy 28° 24% Car problem
    48 1:24.031 5 Hard Cloudy 28° 23% Car problem
    49 1:24.105 4 Hard Very Cloudy 27° 23% Car problem
    50 1:24.180 4 Hard Very Cloudy 26° 23% Car problem
    51 1:24.361 4 Hard Very Cloudy 25° 22% Car problem
    52 1:24.321 4 Hard Very Cloudy 24° 21% Car problem
    53 1:24.428 4 Hard Very Cloudy 24° 21% Car problem
    54 1:24.334 5 Hard Very Cloudy 24° 21% Car problem
    55 1:24.320 5 Hard Very Cloudy 24° 21% Car problem
    56 1:24.239 5 Hard Very Cloudy 25° 21% Car problem
    57 1:24.274 6 Hard Very Cloudy 25° 21% Car problem
    58 1:24.238 5 Hard Very Cloudy 25° 21% Car problem
    59 1:24.077 5 Hard Very Cloudy 26° 21% Car problem
    60 1:23.979 5 Hard Very Cloudy 27° 21% Car problem
    61 1:24.013 5 Hard Very Cloudy 27° 21% Car problem
    62 1:23.861 5 Hard Very Cloudy 27° 21% Car problem
    63 1:23.927 5 Hard Very Cloudy 27° 21% Car problem
    64 1:23.894 5 Hard Very Cloudy 27° 21% Car problem
    65 1:23.870 5 Hard Very Cloudy 27° 21% Car problem
    66 1:23.846 5 Hard Very Cloudy 27° 21% Car problem
    67 1:23.789 6 Hard Very Cloudy 27° 21% Car problem
    68 1:23.762 6 Hard Very Cloudy 27° 21% Car problem
    69 1:23.770 6 Hard Very Cloudy 27° 21% Car problem
    70 1:23.888 6 Hard Very Cloudy 26° 21% Car problem
    71 1:23.880 6 Hard Very Cloudy 25° 21% Car problem

    Risks used
    Overtake Defend Clear Malfunct
    0 0 25 0

    Setup used
    FWing RWing Eng Bra Gear Susp
    506 806 593 681 482 377



    Start fuel: 116 litersPit Pitstop reason Tyres condition
    Fuel left Refilled to Pit time
    Stop 1
    (Lap 36) No more fuel was left 17% 1% 120 liters 25.437s

    Technical problems
    Lap 42 The brakes broke and stopped functioning



    Tyres condition after finish: 27%

    Fuel left in the car after finish: 9 liters

    Sponsored content

    Re: Season 27, Race 16: Interlagos GP (Brazil)

    Post by Sponsored content


      Current date/time is Sat Jun 24, 2017 2:10 pm